Time,TemperatureF,DewpointF,PressureIn,WindDirection,WindDirectionDegrees,WindSpeedMPH,WindSpeedGustMPH,Humidity,HourlyPrecipIn,Conditions,Clouds,dailyrainin,SoftwareType,DateUTC
2013-05-07 00:00:00,-999.0,-99.9,29.98,SSW,210,14.0,17.0,-999,-99.99,,,-99.99,,2013-05-07 07:00:00,
2013-05-07 00:22:00,-999.0,-99.9,29.98,SSW,210,14.0,17.0,-999,-99.99,,,-99.99,,2013-05-07 07:22:00,
2013-05-07 00:32:00,-999.0,-99.9,29.98,SSW,210,14.0,17.0,-999,-99.99,,,-99.99,,2013-05-07 07:32:00,
2013-05-07 00:42:00,-999.0,-99.9,29.98,SSW,210,14.0,17.0,-999,-99.99,,,-99.99,,2013-05-07 07:42:00,
2013-05-07 00:53:00,-999.0,-99.9,29.98,SSW,210,14.0,17.0,-999,-99.99,,,-99.99,,2013-05-07 07:53:00,
2013-05-07 01:00:00,-999.0,-99.9,29.99,SSW,200,16.0,17.0,-999,-99.99,,,-99.99,,2013-05-07 08:00:00,
2013-05-07 01:11:00,-999.0,-99.9,29.99,SSW,200,16.0,17.0,-999,-99.99,,,-99.99,,2013-05-07 08:11:00,
2013-05-07 01:22:00,-999.0,-99.9,29.99,SSW,200,16.0,17.0,-999,-99.99,,,-99.99,,2013-05-07 08:22:00,
2013-05-07 01:32:00,-999.0,-99.9,29.99,SSW,200,16.0,17.0,-999,-99.99,,,-99.99,,2013-05-07 08:32:00,
2013-05-07 01:42:00,-999.0,-99.9,29.99,SSW,200,16.0,17.0,-999,-99.99,,,-99.99,,2013-05-07 08:42:00,
2013-05-07 01:52:00,-999.0,-99.9,29.99,SSW,200,16.0,17.0,-999,-99.99,,,-99.99,,2013-05-07 08:52:00,
2013-05-07 02:00:00,-999.0,-99.9,29.98,SSW,200,11.0,14.0,-999,-99.99,,,-99.99,,2013-05-07 09:00:00,
2013-05-07 02:23:00,-999.0,-99.9,29.98,SSW,200,11.0,14.0,-999,-99.99,,,-99.99,,2013-05-07 09:23:00,
2013-05-07 02:33:00,-999.0,-99.9,29.98,SSW,200,11.0,14.0,-999,-99.99,,,-99.99,,2013-05-07 09:33:00,
2013-05-07 02:43:00,-999.0,-99.9,29.98,SSW,200,11.0,14.0,-999,-99.99,,,-99.99,,2013-05-07 09:43:00,
2013-05-07 02:52:00,-999.0,-99.9,29.98,SSW,200,11.0,14.0,-999,-99.99,,,-99.99,,2013-05-07 09:52:00,
2013-05-07 03:00:00,-999.0,-99.9,29.97,South,180,8.0,10.0,-999,-99.99,,,-99.99,,2013-05-07 10:00:00,
2013-05-07 03:23:00,-999.0,-99.9,29.97,South,180,8.0,10.0,-999,-99.99,,,-99.99,,2013-05-07 10:23:00,
2013-05-07 03:33:00,-999.0,-99.9,29.97,South,180,8.0,10.0,-999,-99.99,,,-99.99,,2013-05-07 10:33:00,
2013-05-07 03:42:00,-999.0,-99.9,29.97,South,180,8.0,10.0,-999,-99.99,,,-99.99,,2013-05-07 10:42:00,
2013-05-07 03:52:00,-999.0,-99.9,29.97,South,180,8.0,10.0,-999,-99.99,,,-99.99,,2013-05-07 10:52:00,
2013-05-07 04:00:00,-999.0,-99.9,29.97,South,190,9.0,10.0,-999,-99.99,,,-99.99,,2013-05-07 11:00:00,
2013-05-07 04:22:00,-999.0,-99.9,29.97,South,190,9.0,10.0,-999,-99.99,,,-99.99,,2013-05-07 11:22:00,
2013-05-07 04:32:00,-999.0,-99.9,29.97,South,190,9.0,10.0,-999,-99.99,,,-99.99,,2013-05-07 11:32:00,
2013-05-07 04:42:00,-999.0,-99.9,29.97,South,190,9.0,10.0,-999,-99.99,,,-99.99,,2013-05-07 11:42:00,
2013-05-07 04:52:00,-999.0,-99.9,29.97,South,190,9.0,10.0,-999,-99.99,,,-99.99,,2013-05-07 11:52:00,
2013-05-07 05:00:00,51.0,51.0,29.98,South,190,9.0,11.0,100,-99.99,,,-99.99,,2013-05-07 12:00:00,
2013-05-07 05:21:00,51.0,51.0,29.98,South,190,9.0,11.0,100,-99.99,,,-99.99,,2013-05-07 12:21:00,
2013-05-07 05:32:00,51.0,51.0,29.98,South,190,9.0,11.0,100,-99.99,,,-99.99,,2013-05-07 12:32:00,
2013-05-07 05:41:00,51.0,51.0,29.98,South,190,9.0,11.0,100,-99.99,,,-99.99,,2013-05-07 12:41:00,
2013-05-07 05:52:00,51.0,51.0,29.98,South,190,9.0,11.0,100,-99.99,,,-99.99,,2013-05-07 12:52:00,
2013-05-07 06:00:00,51.0,51.0,29.99,SSW,210,9.0,11.0,100,-99.99,,,-99.99,,2013-05-07 13:00:00,
2013-05-07 06:21:00,51.0,51.0,29.99,SSW,210,9.0,11.0,100,-99.99,,,-99.99,,2013-05-07 13:21:00,
2013-05-07 06:32:00,51.0,51.0,29.99,SSW,210,9.0,11.0,100,-99.99,,,-99.99,,2013-05-07 13:32:00,
2013-05-07 06:42:00,51.0,51.0,29.99,SSW,210,9.0,11.0,100,-99.99,,,-99.99,,2013-05-07 13:42:00,
2013-05-07 06:51:00,51.0,51.0,29.99,SSW,210,9.0,11.0,100,-99.99,,,-99.99,,2013-05-07 13:51:00,
2013-05-07 07:00:00,50.0,50.0,30.00,SSW,210,7.0,9.0,100,-99.99,,,-99.99,,2013-05-07 14:00:00,
2013-05-07 07:11:00,50.0,50.0,30.00,SSW,210,7.0,9.0,100,-99.99,,,-99.99,,2013-05-07 14:11:00,
2013-05-07 07:21:00,50.0,50.0,30.00,SSW,210,7.0,9.0,100,-99.99,,,-99.99,,2013-05-07 14:21:00,
2013-05-07 07:31:00,50.0,50.0,30.00,SSW,210,7.0,9.0,100,-99.99,,,-99.99,,2013-05-07 14:31:00,
2013-05-07 07:42:00,50.0,50.0,30.00,SSW,210,7.0,9.0,100,-99.99,,,-99.99,,2013-05-07 14:42:00,
2013-05-07 07:52:00,50.0,50.0,30.00,SSW,210,7.0,9.0,100,-99.99,,,-99.99,,2013-05-07 14:52:00,
2013-05-07 08:00:00,50.0,50.0,30.01,South,190,13.0,15.0,100,-99.99,,,-99.99,,2013-05-07 15:00:00,
2013-05-07 08:21:00,50.0,50.0,30.01,South,190,13.0,15.0,100,-99.99,,,-99.99,,2013-05-07 15:21:00,
2013-05-07 08:32:00,50.0,50.0,30.01,South,190,13.0,15.0,100,-99.99,,,-99.99,,2013-05-07 15:32:00,
2013-05-07 08:42:00,50.0,50.0,30.01,South,190,13.0,15.0,100,-99.99,,,-99.99,,2013-05-07 15:42:00,
2013-05-07 08:52:00,50.0,50.0,30.01,South,190,13.0,15.0,100,-99.99,,,-99.99,,2013-05-07 15:52:00,
2013-05-07 09:00:00,50.0,50.0,30.02,South,190,10.0,11.0,100,-99.99,,,-99.99,,2013-05-07 16:00:00,
2013-05-07 09:12:00,50.0,50.0,30.02,South,190,10.0,11.0,100,-99.99,,,-99.99,,2013-05-07 16:12:00,
2013-05-07 09:22:00,50.0,50.0,30.02,South,190,10.0,11.0,100,-99.99,,,-99.99,,2013-05-07 16:22:00,
2013-05-07 09:32:00,50.0,50.0,30.02,South,190,10.0,11.0,100,-99.99,,,-99.99,,2013-05-07 16:32:00,
2013-05-07 09:41:00,50.0,50.0,30.02,South,190,10.0,11.0,100,-99.99,,,-99.99,,2013-05-07 16:41:00,
2013-05-07 09:51:00,50.0,50.0,30.02,South,190,10.0,11.0,100,-99.99,,,-99.99,,2013-05-07 16:51:00,
2013-05-07 10:00:00,51.0,51.0,30.03,SSW,200,9.0,11.0,100,-99.99,,,-99.99,,2013-05-07 17:00:00,
2013-05-07 10:21:00,51.0,51.0,30.03,SSW,200,9.0,11.0,100,-99.99,,,-99.99,,2013-05-07 17:21:00,
2013-05-07 10:31:00,51.0,51.0,30.03,SSW,200,9.0,11.0,100,-99.99,,,-99.99,,2013-05-07 17:31:00,
2013-05-07 10:41:00,51.0,51.0,30.03,SSW,200,9.0,11.0,100,-99.99,,,-99.99,,2013-05-07 17:41:00,
2013-05-07 10:52:00,51.0,51.0,30.03,SSW,200,9.0,11.0,100,-99.99,,,-99.99,,2013-05-07 17:52:00,
2013-05-07 11:00:00,52.0,52.0,30.03,SSW,200,7.0,8.0,100,-99.99,,,-99.99,,2013-05-07 18:00:00,
2013-05-07 11:21:00,52.0,52.0,30.03,SSW,200,7.0,8.0,100,-99.99,,,-99.99,,2013-05-07 18:21:00,
2013-05-07 11:31:00,52.0,52.0,30.03,SSW,200,7.0,8.0,100,-99.99,,,-99.99,,2013-05-07 18:31:00,
2013-05-07 11:41:00,52.0,52.0,30.03,SSW,200,7.0,8.0,100,-99.99,,,-99.99,,2013-05-07 18:41:00,
2013-05-07 11:51:00,52.0,52.0,30.03,SSW,200,7.0,8.0,100,-99.99,,,-99.99,,2013-05-07 18:51:00,
2013-05-07 12:00:00,52.0,51.0,30.04,SSW,210,9.0,11.0,96,-99.99,,,-99.99,,2013-05-07 19:00:00,
2013-05-07 12:21:00,52.0,51.0,30.04,SSW,210,9.0,11.0,96,-99.99,,,-99.99,,2013-05-07 19:21:00,
2013-05-07 12:31:00,52.0,51.0,30.04,SSW,210,9.0,11.0,96,-99.99,,,-99.99,,2013-05-07 19:31:00,
2013-05-07 12:41:00,52.0,51.0,30.04,SSW,210,9.0,11.0,96,-99.99,,,-99.99,,2013-05-07 19:41:00,
2013-05-07 12:51:00,52.0,51.0,30.04,SSW,210,9.0,11.0,96,-99.99,,,-99.99,,2013-05-07 19:51:00,
2013-05-07 13:00:00,53.0,51.0,30.04,SSW,210,9.0,11.0,92,-99.99,,,-99.99,,2013-05-07 20:00:00,
2013-05-07 13:21:00,53.0,51.0,30.04,SSW,210,9.0,11.0,92,-99.99,,,-99.99,,2013-05-07 20:21:00,
2013-05-07 13:32:00,53.0,51.0,30.04,SSW,210,9.0,11.0,92,-99.99,,,-99.99,,2013-05-07 20:32:00,
2013-05-07 13:41:00,53.0,51.0,30.04,SSW,210,9.0,11.0,92,-99.99,,,-99.99,,2013-05-07 20:41:00,
2013-05-07 13:51:00,53.0,51.0,30.04,SSW,210,9.0,11.0,92,-99.99,,,-99.99,,2013-05-07 20:51:00,
2013-05-07 14:00:00,53.0,51.0,30.05,SW,220,11.0,13.0,91,-99.99,,,-99.99,,2013-05-07 21:00:00,
2013-05-07 14:21:00,53.0,51.0,30.05,SW,220,11.0,13.0,91,-99.99,,,-99.99,,2013-05-07 21:21:00,
2013-05-07 14:32:00,53.0,51.0,30.05,SW,220,11.0,13.0,91,-99.99,,,-99.99,,2013-05-07 21:32:00,
2013-05-07 14:42:00,53.0,51.0,30.05,SW,220,11.0,13.0,91,-99.99,,,-99.99,,2013-05-07 21:42:00,
2013-05-07 14:52:00,53.0,51.0,30.05,SW,220,11.0,13.0,91,-99.99,,,-99.99,,2013-05-07 21:52:00,
2013-05-07 15:00:00,53.0,51.0,30.05,SW,220,9.0,10.0,94,-99.99,,,-99.99,,2013-05-07 22:00:00,
2013-05-07 15:22:00,53.0,51.0,30.05,SW,220,9.0,10.0,94,-99.99,,,-99.99,,2013-05-07 22:22:00,
2013-05-07 15:32:00,53.0,51.0,30.05,SW,220,9.0,10.0,94,-99.99,,,-99.99,,2013-05-07 22:32:00,
2013-05-07 15:41:00,53.0,51.0,30.05,SW,220,9.0,10.0,94,-99.99,,,-99.99,,2013-05-07 22:41:00,
2013-05-07 15:52:00,53.0,51.0,30.05,SW,220,9.0,10.0,94,-99.99,,,-99.99,,2013-05-07 22:52:00,
2013-05-07 16:00:00,52.0,51.0,30.05,SW,230,7.0,8.0,98,-99.99,,,-99.99,,2013-05-07 23:00:00,
2013-05-07 16:21:00,52.0,51.0,30.05,SW,230,7.0,8.0,98,-99.99,,,-99.99,,2013-05-07 23:21:00,
2013-05-07 16:31:00,52.0,51.0,30.05,SW,230,7.0,8.0,98,-99.99,,,-99.99,,2013-05-07 23:31:00,
2013-05-07 16:41:00,52.0,51.0,30.05,SW,230,7.0,8.0,98,-99.99,,,-99.99,,2013-05-07 23:41:00,
2013-05-07 16:52:00,52.0,51.0,30.05,SW,230,7.0,8.0,98,-99.99,,,-99.99,,2013-05-07 23:52:00,
2013-05-07 17:00:00,52.0,52.0,30.05,SSW,210,8.0,9.0,100,-99.99,,,-99.99,,2013-05-08 00:00:00,
2013-05-07 17:21:00,52.0,52.0,30.05,SSW,210,8.0,9.0,100,-99.99,,,-99.99,,2013-05-08 00:21:00,
2013-05-07 17:32:00,52.0,52.0,30.05,SSW,210,8.0,9.0,100,-99.99,,,-99.99,,2013-05-08 00:32:00,
2013-05-07 17:41:00,52.0,52.0,30.05,SSW,210,8.0,9.0,100,-99.99,,,-99.99,,2013-05-08 00:41:00,
2013-05-07 17:51:00,52.0,52.0,30.05,SSW,210,8.0,9.0,100,-99.99,,,-99.99,,2013-05-08 00:51:00,
2013-05-07 18:00:00,51.0,51.0,30.05,SSW,200,7.0,9.0,100,-99.99,,,-99.99,,2013-05-08 01:00:00,
2013-05-07 18:21:00,51.0,51.0,30.05,SSW,200,7.0,9.0,100,-99.99,,,-99.99,,2013-05-08 01:21:00,
2013-05-07 18:31:00,51.0,51.0,30.05,SSW,200,7.0,9.0,100,-99.99,,,-99.99,,2013-05-08 01:31:00,
2013-05-07 18:41:00,51.0,51.0,30.05,SSW,200,7.0,9.0,100,-99.99,,,-99.99,,2013-05-08 01:41:00,
2013-05-07 18:52:00,51.0,51.0,30.05,SSW,200,7.0,9.0,100,-99.99,,,-99.99,,2013-05-08 01:52:00,
2013-05-07 19:00:00,51.0,51.0,30.05,SSW,210,6.0,7.0,100,-99.99,,,-99.99,,2013-05-08 02:00:00,
2013-05-07 19:11:00,51.0,51.0,30.05,SSW,210,6.0,7.0,100,-99.99,,,-99.99,,2013-05-08 02:11:00,
2013-05-07 19:21:00,51.0,51.0,30.05,SSW,210,6.0,7.0,100,-99.99,,,-99.99,,2013-05-08 02:21:00,
2013-05-07 19:31:00,51.0,51.0,30.05,SSW,210,6.0,7.0,100,-99.99,,,-99.99,,2013-05-08 02:31:00,
2013-05-07 19:42:00,51.0,51.0,30.05,SSW,210,6.0,7.0,100,-99.99,,,-99.99,,2013-05-08 02:42:00,
2013-05-07 19:51:00,51.0,51.0,30.05,SSW,210,6.0,7.0,100,-99.99,,,-99.99,,2013-05-08 02:51:00,
2013-05-07 20:00:00,51.0,51.0,30.05,SSW,210,7.0,8.0,100,-99.99,,,-99.99,,2013-05-08 03:00:00,
2013-05-07 20:21:00,51.0,51.0,30.05,SSW,210,7.0,8.0,100,-99.99,,,-99.99,,2013-05-08 03:21:00,
2013-05-07 20:32:00,51.0,51.0,30.05,SSW,210,7.0,8.0,100,-99.99,,,-99.99,,2013-05-08 03:32:00,
2013-05-07 20:43:00,51.0,51.0,30.05,SSW,210,7.0,8.0,100,-99.99,,,-99.99,,2013-05-08 03:43:00,
2013-05-07 20:52:00,51.0,51.0,30.05,SSW,210,7.0,8.0,100,-99.99,,,-99.99,,2013-05-08 03:52:00,
2013-05-07 21:00:00,51.0,51.0,30.06,SW,220,7.0,9.0,99,-99.99,,,-99.99,,2013-05-08 04:00:00,
2013-05-07 21:22:00,51.0,51.0,30.06,SW,220,7.0,9.0,99,-99.99,,,-99.99,,2013-05-08 04:22:00,
2013-05-07 21:32:00,51.0,51.0,30.06,SW,220,7.0,9.0,99,-99.99,,,-99.99,,2013-05-08 04:32:00,
2013-05-07 21:42:00,51.0,51.0,30.06,SW,220,7.0,9.0,99,-99.99,,,-99.99,,2013-05-08 04:42:00,
2013-05-07 21:52:00,51.0,51.0,30.06,SW,220,7.0,9.0,99,-99.99,,,-99.99,,2013-05-08 04:52:00,
2013-05-07 22:00:00,51.0,51.0,30.08,SSW,210,5.0,6.0,100,-99.99,,,-99.99,,2013-05-08 05:00:00,
2013-05-07 22:12:00,51.0,51.0,30.08,SSW,210,5.0,6.0,100,-99.99,,,-99.99,,2013-05-08 05:12:00,
2013-05-07 22:22:00,51.0,51.0,30.08,SSW,210,5.0,6.0,100,-99.99,,,-99.99,,2013-05-08 05:22:00,
2013-05-07 22:32:00,51.0,51.0,30.08,SSW,210,5.0,6.0,100,-99.99,,,-99.99,,2013-05-08 05:32:00,
2013-05-07 22:42:00,51.0,51.0,30.08,SSW,210,5.0,6.0,100,-99.99,,,-99.99,,2013-05-08 05:42:00,
2013-05-07 22:52:00,51.0,51.0,30.08,SSW,210,5.0,6.0,100,-99.99,,,-99.99,,2013-05-08 05:52:00,
2013-05-07 23:00:00,51.0,51.0,30.09,South,190,5.0,6.0,100,-99.99,,,-99.99,,2013-05-08 06:00:00,
2013-05-07 23:11:00,51.0,51.0,30.09,South,190,5.0,6.0,100,-99.99,,,-99.99,,2013-05-08 06:11:00,
2013-05-07 23:21:00,51.0,51.0,30.09,South,190,5.0,6.0,100,-99.99,,,-99.99,,2013-05-08 06:21:00,
2013-05-07 23:31:00,51.0,51.0,30.09,South,190,5.0,6.0,100,-99.99,,,-99.99,,2013-05-08 06:31:00,
2013-05-07 23:41:00,51.0,51.0,30.09,South,190,5.0,6.0,100,-99.99,,,-99.99,,2013-05-08 06:41:00,
2013-05-07 23:51:00,51.0,51.0,30.09,South,190,5.0,6.0,100,-99.99,,,-99.99,,2013-05-08 06:51:00,